Woodham Mortimer, United Kingdom

8:28 PM GMT on January 18, 2017 (GMT +0000)
Southend

Weather History for EGMC - August, 2013

Change the Weather History Date:

Monday, August 19, 2013

  Actual Average Record
Temperature  
Mean Temperature 64 °F -  
Max Temperature 73 °F 67 °F 80 °F (1996)
Min Temperature 55 °F 53 °F 48 °F (1998)
Degree Days  
Heating Degree Days 1    
Growing Degree Days 14 (Base 50)    
Moisture  
Dew Point 47 °F    
Average Humidity 54    
Maximum Humidity 77    
Minimum Humidity 33    
Precipitation  
Precipitation 0.00 in - - ()
Sea Level Pressure  
Sea Level Pressure 30.10 in    
Wind  
Wind Speed 8 mph ()    
Max Wind Speed 14 mph    
Max Gust Speed -    
Visibility 6.2 miles    
Events      
Averages and records for this station are not official NWS values.
T = Trace of Precipitation, MM = Missing Value Source: Averaged Metar Reports

Daily Weather History Graph

Daily Weather History Graph

Search for Another Location

Airport or City:

Trip Planner

Search our weather history database for the weather conditions in past years. The results will help you decide how hot, cold, wet, or windy it might be!

Date:

Astronomy

Aug. 19, 2013 Rise Set
Actual Time 5:48 AM BST 8:11 PM BST
Civil Twilight 5:12 AM BST 8:48 PM BST
Nautical Twilight 4:25 AM BST 9:34 PM BST
Astronomical Twilight 3:30 AM BST 10:28 PM BST
Moon 6:53 PM BST (8/19) 3:44 AM BST (8/19)
Length of Visible Light 15h 36m
Length of Day
14h 22m
Waxing Gibbous, 96% of the Moon is Illuminated
Aug 19
Waxing Gibbous
Aug 21
Full
Aug 28
Last Quarter
Sep 5
New
Sep 12
First Quarter

Hourly Weather History & Observations

Time (BST) Temp. Dew Point Humidity Pressure Visibility Wind Dir Wind Speed Gust Speed Precip Events Conditions
12:50 AM 64.4 °F 53.6 °F 68% 29.89 in 6.2 mi West 11.5 mph - N/A   Partly Cloudy
1:50 AM 62.6 °F 50.0 °F 63% 29.89 in 6.2 mi West 8.1 mph - N/A   Partly Cloudy
2:50 AM 60.8 °F 50.0 °F 68% 29.92 in 6.2 mi West 9.2 mph - N/A   Partly Cloudy
3:50 AM 57.2 °F 50.0 °F 77% 29.92 in 6.2 mi WNW 6.9 mph - N/A   Partly Cloudy
4:50 AM 57.2 °F 50.0 °F 77% 29.95 in 6.2 mi WNW 8.1 mph - N/A   Partly Cloudy
5:20 AM 57.2 °F 50.0 °F 77% 29.95 in 6.2 mi WNW 6.9 mph - N/A   Partly Cloudy
5:50 AM 57.2 °F 50.0 °F 77% 29.98 in - WNW 6.9 mph - N/A   Clear
6:20 AM 55.4 °F 48.2 °F 77% 29.98 in - WNW 5.8 mph - N/A   Clear
6:50 AM 57.2 °F 48.2 °F 72% 29.98 in - WNW 4.6 mph - N/A   Clear
7:20 AM 59.0 °F 50.0 °F 72% 30.01 in - West 6.9 mph - N/A   Clear
7:50 AM 60.8 °F 50.0 °F 68% 30.01 in - West 8.1 mph - N/A   Clear
8:20 AM 60.8 °F 50.0 °F 68% 30.04 in - West 10.4 mph - N/A   Clear
8:50 AM 62.6 °F 50.0 °F 63% 30.04 in - WNW 10.4 mph - N/A   Clear
9:20 AM 64.4 °F 51.8 °F 64% 30.04 in - WNW 8.1 mph - N/A   Clear
9:50 AM 66.2 °F 50.0 °F 56% 30.06 in - WNW 8.1 mph - N/A   Clear
10:20 AM 66.2 °F 48.2 °F 52% 30.06 in 6.2 mi WNW 9.2 mph - N/A   Partly Cloudy
10:50 AM 68.0 °F 48.2 °F 49% 30.06 in 6.2 mi West 11.5 mph - N/A   Scattered Clouds
11:20 AM 69.8 °F 44.6 °F 40% 30.09 in 6.2 mi WNW 11.5 mph - N/A   Scattered Clouds
11:50 AM 69.8 °F 44.6 °F 40% 30.09 in 6.2 mi WNW 9.2 mph - N/A   Partly Cloudy
12:20 PM 71.6 °F 42.8 °F 35% 30.09 in - NW 13.8 mph - N/A   Clear
12:50 PM 68.0 °F 44.6 °F 43% 30.12 in - NW 11.5 mph - N/A   Clear
1:20 PM 69.8 °F 41.0 °F 35% 30.12 in - WNW 11.5 mph - N/A   Clear
1:50 PM 71.6 °F 44.6 °F 38% 30.12 in - WNW 10.4 mph - N/A   Clear
2:20 PM 69.8 °F 44.6 °F 40% 30.12 in - NW 11.5 mph - N/A   Clear
2:50 PM 69.8 °F 44.6 °F 40% 30.15 in - WNW 10.4 mph - N/A   Clear
3:20 PM 71.6 °F 44.6 °F 38% 30.15 in - NW 12.7 mph - N/A   Clear
3:50 PM 73.4 °F 42.8 °F 33% 30.15 in - NW 11.5 mph - N/A   Clear
4:20 PM 71.6 °F 41.0 °F 33% 30.15 in - NW 10.4 mph - N/A   Clear
4:50 PM 71.6 °F 42.8 °F 35% 30.15 in - WNW 8.1 mph - N/A   Clear
5:20 PM 71.6 °F 42.8 °F 35% 30.15 in - WNW 10.4 mph - N/A   Clear
5:50 PM 69.8 °F 44.6 °F 40% 30.18 in - NW 5.8 mph - N/A   Clear
6:50 PM 68.0 °F 44.6 °F 43% 30.18 in - WNW 4.6 mph - N/A   Clear
7:20 PM 69.8 °F 44.6 °F 40% 30.21 in - NNW 6.9 mph - N/A   Clear
7:50 PM 68.0 °F 44.6 °F 43% 30.21 in - NW 6.9 mph - N/A   Clear
8:20 PM 64.4 °F 46.4 °F 52% 30.24 in - NW 5.8 mph - N/A   Clear
8:50 PM 62.6 °F 46.4 °F 55% 30.24 in - NW 3.5 mph - N/A   Clear
9:20 PM 62.6 °F 46.4 °F 55% 30.27 in - NW 5.8 mph - N/A   Clear
9:50 PM 64.4 °F 46.4 °F 52% 30.27 in - NW 6.9 mph - N/A   Clear
10:20 PM 60.8 °F 46.4 °F 59% 30.27 in - WNW 5.8 mph - N/A   Clear
10:50 PM 60.8 °F 46.4 °F 59% 30.27 in - NW 4.6 mph - N/A   Clear
11:20 PM 59.0 °F 46.4 °F 63% 30.30 in - WNW 3.5 mph - N/A   Clear
11:50 PM 59.0 °F 46.4 °F 63% 30.30 in - WNW 3.5 mph - N/A   Clear